SAS1556 EHAM-ESSA

Flight info

Callsign SAS1556
Flight time N/A
Altitude 37000
Route ANDIK N873 HUNQI DCT DOSUR DCT BEVUM DCT MIKNA N851 PELUP Z226 NILUG
Aircraft A320/M-SDE3FGHIRWY/LB1

Departure

Time 2026-04-27 06:52
Airport Amsterdam Airport Schiphol (EHAM)

Arrival

Time N/A
Airport Stockholm-Arlanda Airport (ESSA)
Time Latitude Longitude Altitude Speed Heading
2026-04-27 06:06 52.30573 4.76491 -1 ft 0 kts 58°
2026-04-27 06:38 52.30566 4.76474 -1 ft 4 kts 43°
2026-04-27 06:38 52.30552 4.76447 -1 ft 4 kts 61°
2026-04-27 06:38 52.30544 4.76407 -1 ft 4 kts 96°
2026-04-27 06:38 52.30548 4.76382 -1 ft 0 kts 112°
2026-04-27 06:41 52.30538 4.76403 -1 ft 6 kts 132°
2026-04-27 06:41 52.30485 4.76458 -1 ft 12 kts 148°
2026-04-27 06:41 52.30401 4.76545 -1 ft 16 kts 147°
2026-04-27 06:41 52.30304 4.76544 -1 ft 16 kts 227°
2026-04-27 06:42 52.30242 4.76383 -1 ft 17 kts 237°
2026-04-27 06:42 52.30174 4.76206 -1 ft 19 kts 238°
2026-04-27 06:42 52.30100 4.76011 -1 ft 21 kts 238°
2026-04-27 06:42 52.30019 4.75802 -1 ft 22 kts 238°
2026-04-27 06:43 52.29936 4.75584 -1 ft 23 kts 237°
2026-04-27 06:43 52.29850 4.75363 -1 ft 22 kts 239°
2026-04-27 06:43 52.29871 4.75140 -1 ft 21 kts 314°
2026-04-27 06:43 52.29973 4.74952 -1 ft 23 kts 312°
2026-04-27 06:44 52.30085 4.74747 2 ft 24 kts 311°
2026-04-27 06:44 52.30186 4.74563 10 ft 21 kts 311°
2026-04-27 06:44 52.30283 4.74378 9 ft 22 kts 311°
2026-04-27 06:44 52.30417 4.74198 -1 ft 27 kts 349°
2026-04-27 06:45 52.30606 4.74210 -1 ft 28 kts
2026-04-27 06:45 52.30804 4.74228 -1 ft 29 kts
2026-04-27 06:45 52.31010 4.74249 -1 ft 29 kts
2026-04-27 06:45 52.31218 4.74268 -1 ft 28 kts
2026-04-27 06:46 52.31405 4.74284 -1 ft 27 kts
2026-04-27 06:46 52.31597 4.74302 -1 ft 29 kts
2026-04-27 06:46 52.31801 4.74322 -1 ft 29 kts
2026-04-27 06:46 52.31963 4.74335 -1 ft 18 kts
2026-04-27 06:47 52.32032 4.74206 -1 ft 18 kts 274°
2026-04-27 06:47 52.32040 4.73981 -2 ft 22 kts 273°
2026-04-27 06:47 52.32048 4.73726 -1 ft 23 kts 272°
2026-04-27 06:47 52.32060 4.73446 -1 ft 26 kts 282°
2026-04-27 06:48 52.32180 4.73227 -1 ft 28 kts 319°
2026-04-27 06:48 52.32331 4.73015 -1 ft 30 kts 319°
2026-04-27 06:48 52.32473 4.72813 -1 ft 24 kts 319°
2026-04-27 06:48 52.32601 4.72633 -1 ft 25 kts 319°
2026-04-27 06:49 52.32723 4.72439 -1 ft 23 kts 311°
2026-04-27 06:49 52.32836 4.72229 -1 ft 26 kts 311°
2026-04-27 06:49 52.32959 4.72001 -1 ft 26 kts 310°
2026-04-27 06:49 52.33071 4.71794 -1 ft 21 kts 311°
2026-04-27 06:50 52.33147 4.71626 -1 ft 18 kts 286°
2026-04-27 06:50 52.33100 4.71451 -1 ft 19 kts 220°
2026-04-27 06:50 52.32995 4.71302 -1 ft 21 kts 221°
2026-04-27 06:50 52.32887 4.71149 -1 ft 18 kts 224°
2026-04-27 06:51 52.32863 4.70959 -2 ft 12 kts 275°
2026-04-27 06:51 52.32907 4.70895 -2 ft 13 kts 353°
2026-04-27 06:51 52.33160 4.70923 -4 ft 70 kts
2026-04-27 06:51 52.33859 4.70985 -1 ft 128 kts
2026-04-27 06:52 52.34904 4.71074 34 ft 168 kts
2026-04-27 06:52 52.36104 4.71146 499 ft 178 kts
2026-04-27 06:52 52.37387 4.71273 1051 ft 192 kts
2026-04-27 06:52 52.38823 4.71446 1304 ft 223 kts
2026-04-27 06:53 52.40451 4.71666 1794 ft 244 kts
2026-04-27 06:53 52.42176 4.71861 2634 ft 251 kts
2026-04-27 06:53 52.43930 4.72005 3597 ft 254 kts
2026-04-27 06:53 52.45707 4.72144 4556 ft 257 kts
2026-04-27 06:54 52.47499 4.72290 5469 ft 260 kts
2026-04-27 06:54 52.49330 4.72448 6338 ft 265 kts
2026-04-27 06:54 52.51195 4.72635 7148 ft 271 kts
2026-04-27 06:54 52.53016 4.73530 7922 ft 278 kts 27°
2026-04-27 06:55 52.54538 4.75500 8723 ft 284 kts 49°
2026-04-27 06:55 52.55532 4.78321 9525 ft 290 kts 70°
2026-04-27 06:55 52.56141 4.81495 10329 ft 294 kts 72°
2026-04-27 06:55 52.56756 4.84781 10747 ft 311 kts 72°
2026-04-27 06:56 52.57419 4.88303 10941 ft 334 kts 72°
2026-04-27 06:56 52.58127 4.92028 11401 ft 346 kts 70°
2026-04-27 06:56 52.59116 4.95646 12041 ft 350 kts 58°
2026-04-27 06:56 52.60522 4.98930 12709 ft 353 kts 50°
2026-04-27 06:57 52.62052 5.02104 13386 ft 356 kts 50°
2026-04-27 06:57 52.63602 5.05325 14060 ft 361 kts 50°
2026-04-27 06:57 52.65165 5.08580 14660 ft 365 kts 50°
2026-04-27 06:57 52.66556 5.11486 15187 ft 368 kts 50°
2026-04-27 06:58 52.68150 5.14825 15764 ft 372 kts 50°
2026-04-27 06:58 52.71377 5.21615 16912 ft 380 kts 50°
2026-04-27 06:58 52.73016 5.25073 17483 ft 385 kts 50°
2026-04-27 06:59 52.74668 5.28564 18055 ft 389 kts 50°
2026-04-27 06:59 52.76345 5.32107 18628 ft 393 kts 50°
2026-04-27 06:59 52.78036 5.35684 19116 ft 398 kts 50°
2026-04-27 06:59 52.79751 5.39303 19653 ft 401 kts 50°
2026-04-27 07:00 52.81474 5.42947 20185 ft 405 kts 50°
2026-04-27 07:00 52.83217 5.46643 20724 ft 409 kts 50°
2026-04-27 07:00 52.84972 5.50375 21250 ft 412 kts 50°
2026-04-27 07:00 52.86733 5.54133 21771 ft 416 kts 50°
2026-04-27 07:01 52.88510 5.57938 22268 ft 419 kts 50°
2026-04-27 07:01 52.90300 5.61775 22760 ft 423 kts 50°
2026-04-27 07:01 52.92108 5.65649 23247 ft 426 kts 49°
2026-04-27 07:01 52.93928 5.69546 23736 ft 429 kts 49°
2026-04-27 07:02 52.95764 5.73477 24156 ft 433 kts 49°
2026-04-27 07:02 52.97610 5.77438 24556 ft 436 kts 49°
2026-04-27 07:02 52.99467 5.81435 24950 ft 439 kts 50°
2026-04-27 07:02 53.01330 5.85460 25314 ft 442 kts 49°
2026-04-27 07:03 53.03209 5.89523 25687 ft 445 kts 49°
2026-04-27 07:03 53.05074 5.93565 26039 ft 448 kts 50°
2026-04-27 07:03 53.06967 5.97684 26398 ft 450 kts 50°
2026-04-27 07:03 53.08873 6.01835 26757 ft 453 kts 49°
2026-04-27 07:04 53.10790 6.06014 27107 ft 456 kts 49°
2026-04-27 07:04 53.12724 6.10224 27449 ft 458 kts 49°
2026-04-27 07:04 53.14665 6.14452 27802 ft 461 kts 49°
2026-04-27 07:04 53.16615 6.18711 28150 ft 464 kts 49°
2026-04-27 07:05 53.18572 6.22995 28497 ft 466 kts 49°
2026-04-27 07:05 53.20543 6.27320 28833 ft 469 kts 49°
2026-04-27 07:05 53.22519 6.31667 29166 ft 472 kts 49°
2026-04-27 07:05 53.24502 6.36038 29494 ft 474 kts 49°
2026-04-27 07:06 53.26500 6.40450 29823 ft 477 kts 49°
2026-04-27 07:06 53.28497 6.44873 30147 ft 479 kts 49°
2026-04-27 07:06 53.30502 6.49323 30577 ft 478 kts 49°
2026-04-27 07:06 53.32500 6.53769 30985 ft 477 kts 49°
2026-04-27 07:07 53.34534 6.58136 31380 ft 474 kts 45°
2026-04-27 07:07 53.36847 6.62031 31782 ft 470 kts 38°
2026-04-27 07:07 53.39261 6.65702 32190 ft 469 kts 38°
2026-04-27 07:07 53.41668 6.69379 32603 ft 468 kts 38°
2026-04-27 07:08 53.44075 6.73075 33013 ft 468 kts 38°
2026-04-27 07:08 53.46466 6.76768 33424 ft 468 kts 38°
2026-04-27 07:08 53.48852 6.80472 33832 ft 467 kts 38°
2026-04-27 07:08 53.51237 6.84180 34240 ft 467 kts 38°
2026-04-27 07:09 53.53617 6.87876 34594 ft 466 kts 38°
2026-04-27 07:09 53.56001 6.91578 34928 ft 466 kts 38°
2026-04-27 07:09 53.58407 6.95219 35268 ft 464 kts 36°
2026-04-27 07:09 53.60848 6.98747 35601 ft 462 kts 35°
2026-04-27 07:10 53.63317 7.02202 35931 ft 461 kts 34°
2026-04-27 07:10 53.65790 7.05613 36256 ft 459 kts 34°
2026-04-27 07:10 53.68259 7.09030 36572 ft 459 kts 34°
2026-04-27 07:10 53.70712 7.12474 36883 ft 458 kts 35°
2026-04-27 07:11 53.73149 7.15940 37183 ft 457 kts 35°
2026-04-27 07:11 53.75573 7.19415 37337 ft 458 kts 36°
2026-04-27 07:11 53.78010 7.22932 37359 ft 462 kts 36°
2026-04-27 07:12 53.82900 7.30042 37356 ft 464 kts 36°
2026-04-27 07:12 53.87680 7.37431 37363 ft 468 kts 42°
2026-04-27 07:13 53.92157 7.45452 37365 ft 468 kts 42°
2026-04-27 07:13 53.96632 7.53467 37364 ft 468 kts 42°
2026-04-27 07:14 54.01114 7.61522 37368 ft 469 kts 42°
2026-04-27 07:14 54.05585 7.69599 37384 ft 469 kts 42°
2026-04-27 07:15 54.10054 7.77693 37381 ft 469 kts 42°
2026-04-27 07:15 54.14521 7.85798 37385 ft 469 kts 42°
2026-04-27 07:16 54.18973 7.93925 37383 ft 469 kts 42°
2026-04-27 07:16 54.23420 8.02080 37383 ft 469 kts 42°
2026-04-27 07:17 54.27860 8.10242 37374 ft 468 kts 42°
2026-04-27 07:17 54.32295 8.18410 37374 ft 468 kts 42°
2026-04-27 07:18 54.36695 8.26549 37371 ft 468 kts 43°
2026-04-27 07:18 54.41143 8.34808 37369 ft 468 kts 43°
2026-04-27 07:19 54.45564 8.43037 37375 ft 468 kts 43°
2026-04-27 07:19 54.49971 8.51279 37373 ft 468 kts 43°
2026-04-27 07:20 54.54367 8.59530 37373 ft 468 kts 43°
2026-04-27 07:20 54.58765 8.67800 37371 ft 467 kts 43°
2026-04-27 07:21 54.62412 8.74671 37375 ft 467 kts 43°
2026-04-27 07:21 54.67502 8.84308 37373 ft 468 kts 43°
2026-04-27 07:22 54.71882 8.92630 37375 ft 467 kts 43°
2026-04-27 07:22 54.75540 8.99602 37376 ft 467 kts 43°
2026-04-27 07:23 54.79876 9.07909 37374 ft 467 kts 43°
2026-04-27 07:23 54.84250 9.16313 37375 ft 467 kts 43°
2026-04-27 07:24 54.88457 9.24819 37372 ft 468 kts 47°
2026-04-27 07:24 54.92420 9.33829 37375 ft 469 kts 49°
2026-04-27 07:25 54.96302 9.42958 37378 ft 469 kts 49°
2026-04-27 07:25 55.00229 9.51997 37382 ft 468 kts 48°
2026-04-27 07:26 55.04190 9.60986 37383 ft 467 kts 48°
2026-04-27 07:26 55.08138 9.69971 37381 ft 466 kts 48°
2026-04-27 07:27 55.12067 9.78982 37381 ft 466 kts 48°
2026-04-27 07:27 55.15974 9.88005 37381 ft 466 kts 49°
2026-04-27 07:28 55.19872 9.97055 37380 ft 465 kts 49°
2026-04-27 07:28 55.23773 10.06107 37378 ft 465 kts 49°
2026-04-27 07:29 55.27659 10.15153 37380 ft 465 kts 49°
2026-04-27 07:29 55.31543 10.24236 37374 ft 465 kts 49°
2026-04-27 07:30 55.35398 10.33319 37380 ft 465 kts 49°
2026-04-27 07:30 55.39259 10.42440 37382 ft 464 kts 49°
2026-04-27 07:31 55.43117 10.51569 37386 ft 464 kts 49°
2026-04-27 07:31 55.46964 10.60707 37381 ft 464 kts 49°
2026-04-27 07:32 55.50795 10.69852 37378 ft 464 kts 49°
2026-04-27 07:32 55.54627 10.79010 37375 ft 464 kts 49°
2026-04-27 07:33 55.58450 10.88189 37368 ft 464 kts 49°
2026-04-27 07:33 55.62260 10.97372 37368 ft 463 kts 49°
2026-04-27 07:34 55.66068 11.06582 37365 ft 463 kts 50°
2026-04-27 07:34 55.69864 11.15816 37359 ft 463 kts 50°
2026-04-27 07:35 55.73647 11.25064 37359 ft 464 kts 50°
2026-04-27 07:35 55.77409 11.34270 37368 ft 464 kts 50°
2026-04-27 07:36 55.81194 11.43554 37365 ft 464 kts 50°
2026-04-27 07:36 55.84966 11.52854 37365 ft 464 kts 50°
2026-04-27 07:37 55.88727 11.62189 37360 ft 464 kts 50°
2026-04-27 07:37 55.92489 11.71542 37357 ft 464 kts 50°
2026-04-27 07:38 55.96267 11.80949 37364 ft 463 kts 50°
2026-04-27 07:38 55.99987 11.90246 37365 ft 463 kts 50°
2026-04-27 07:39 56.03822 11.99459 37362 ft 458 kts 43°
2026-04-27 07:39 56.08130 12.07842 37362 ft 457 kts 43°
2026-04-27 07:40 56.12442 12.16219 37363 ft 457 kts 43°
2026-04-27 07:40 56.15225 12.21632 37362 ft 457 kts 43°
2026-04-27 07:41 56.19524 12.30037 37361 ft 457 kts 43°
2026-04-27 07:41 56.23806 12.38454 37361 ft 456 kts 43°
2026-04-27 07:42 56.28084 12.46892 37356 ft 456 kts 43°
2026-04-27 07:42 56.32355 12.55340 37357 ft 456 kts 43°
2026-04-27 07:43 56.36616 12.63815 37356 ft 456 kts 43°
2026-04-27 07:43 56.40871 12.72306 37358 ft 456 kts 43°
2026-04-27 07:44 56.45120 12.80791 37358 ft 455 kts 43°
2026-04-27 07:44 56.49359 12.89301 37364 ft 455 kts 43°
2026-04-27 07:45 56.53590 12.97826 37359 ft 455 kts 43°
2026-04-27 07:45 56.57814 13.06368 37353 ft 455 kts 43°
2026-04-27 07:46 56.62027 13.14926 37356 ft 454 kts 44°
2026-04-27 07:46 56.66236 13.23502 37355 ft 454 kts 44°
2026-04-27 07:47 56.70439 13.32075 37356 ft 454 kts 44°
2026-04-27 07:47 56.74629 13.40669 37357 ft 454 kts 44°
2026-04-27 07:48 56.78809 13.49291 37361 ft 454 kts 44°
2026-04-27 07:48 56.82990 13.57930 37361 ft 454 kts 44°
2026-04-27 07:49 56.87158 13.66567 37363 ft 453 kts 44°
2026-04-27 07:49 56.91320 13.75230 37364 ft 453 kts 44°
2026-04-27 07:50 56.95473 13.83913 37369 ft 453 kts 44°
2026-04-27 07:50 56.99619 13.92610 37360 ft 453 kts 44°
2026-04-27 07:51 57.03730 14.01263 37346 ft 452 kts 44°
2026-04-27 07:51 57.07880 14.10036 37342 ft 452 kts 44°
2026-04-27 07:52 57.12004 14.18782 37339 ft 452 kts 44°
2026-04-27 07:52 57.16114 14.27518 37336 ft 452 kts 45°
2026-04-27 07:53 57.20192 14.36235 37336 ft 451 kts 45°
2026-04-27 07:53 57.24284 14.45014 37337 ft 451 kts 45°
2026-04-27 07:54 57.28373 14.53813 37337 ft 451 kts 45°
2026-04-27 07:54 57.32457 14.62619 37344 ft 451 kts 45°
2026-04-27 07:55 57.36526 14.71439 37347 ft 450 kts 45°
2026-04-27 07:55 57.40584 14.80282 37353 ft 450 kts 45°
2026-04-27 07:56 57.44638 14.89142 37356 ft 450 kts 45°
2026-04-27 07:56 57.48683 14.98024 37355 ft 450 kts 45°
2026-04-27 07:57 57.52717 15.06904 37356 ft 450 kts 45°
2026-04-27 07:57 57.56749 15.15813 37352 ft 449 kts 45°
2026-04-27 07:58 57.60766 15.24706 37350 ft 449 kts 45°
2026-04-27 07:58 57.64772 15.33633 37350 ft 448 kts 45°
2026-04-27 07:59 57.68772 15.42585 37350 ft 448 kts 45°
2026-04-27 07:59 57.74748 15.56012 37344 ft 448 kts 45°
2026-04-27 08:00 57.78726 15.64965 37343 ft 447 kts 45°
2026-04-27 08:00 57.82701 15.73945 37342 ft 447 kts 45°
2026-04-27 08:01 57.86658 15.82943 37344 ft 447 kts 45°
2026-04-27 08:01 57.90665 15.91822 37348 ft 442 kts 39°
2026-04-27 08:02 57.95371 15.99115 37340 ft 437 kts 33°
2026-04-27 08:02 58.00155 16.06170 37340 ft 437 kts 33°
2026-04-27 08:03 58.04930 16.13266 37341 ft 437 kts 33°
2026-04-27 08:03 58.09696 16.20384 37333 ft 437 kts 33°
2026-04-27 08:04 58.14449 16.27508 37333 ft 435 kts 33°
2026-04-27 08:04 58.19179 16.34612 37335 ft 433 kts 33°
2026-04-27 08:05 58.23892 16.41728 37332 ft 432 kts 33°
2026-04-27 08:05 58.27711 16.47861 37327 ft 436 kts 40°
2026-04-27 08:06 58.31502 16.57003 37326 ft 442 kts 47°
2026-04-27 08:06 58.35169 16.66383 37318 ft 441 kts 47°
2026-04-27 08:07 58.38828 16.75762 37315 ft 441 kts 47°
2026-04-27 08:07 58.42483 16.85170 37313 ft 441 kts 47°
2026-04-27 08:08 58.46124 16.94614 37307 ft 441 kts 47°
2026-04-27 08:08 58.49755 17.04064 37304 ft 441 kts 47°
2026-04-27 08:09 58.53383 17.13519 37304 ft 441 kts 47°
2026-04-27 08:09 58.57011 17.23007 37298 ft 441 kts 47°
2026-04-27 08:10 58.60624 17.32510 37300 ft 441 kts 47°
2026-04-27 08:10 58.64227 17.42033 37298 ft 441 kts 47°
2026-04-27 08:11 58.67822 17.51565 37291 ft 441 kts 47°
2026-04-27 08:11 58.71411 17.61119 37289 ft 440 kts 47°
2026-04-27 08:12 58.74986 17.70675 37282 ft 440 kts 47°
2026-04-27 08:12 58.78552 17.80277 37279 ft 440 kts 47°
2026-04-27 08:13 58.82517 17.88970 37277 ft 422 kts 28°
2026-04-27 08:13 58.87620 17.94176 37265 ft 414 kts 20°
2026-04-27 08:14 58.92797 17.99047 37263 ft 414 kts 20°
2026-04-27 08:14 58.97981 18.03953 37262 ft 415 kts 20°
2026-04-27 08:15 59.03163 18.08886 37262 ft 415 kts 20°
2026-04-27 08:15 59.08351 18.13819 37265 ft 413 kts 17°
2026-04-27 08:16 59.11064 18.15309 37264 ft 401 kts
2026-04-27 08:16 59.13839 18.15691 37263 ft 399 kts 359°
2026-04-27 08:16 59.19372 18.16324 37265 ft 399 kts 359°
2026-04-27 08:17 59.24917 18.16958 37269 ft 399 kts 359°
2026-04-27 08:17 59.30471 18.17621 37265 ft 400 kts 359°
2026-04-27 08:18 59.35881 18.18267 37267 ft 400 kts 359°
2026-04-27 08:18 59.41429 18.18933 37266 ft 400 kts 359°
2026-04-27 08:19 59.46981 18.19591 37262 ft 399 kts 359°
2026-04-27 08:19 59.52522 18.20255 37271 ft 399 kts 359°
2026-04-27 08:20 59.58077 18.20879 37261 ft 399 kts 359°
2026-04-27 08:20 59.63617 18.21487 37271 ft 399 kts 359°
2026-04-27 08:21 59.69155 18.22098 37265 ft 399 kts 359°
2026-04-27 08:21 59.74695 18.22712 37265 ft 398 kts 359°
2026-04-27 08:22 59.80226 18.23330 37266 ft 398 kts 359°
2026-04-27 08:22 59.85728 18.23950 37262 ft 398 kts 359°
2026-04-27 08:23 59.91260 18.24578 37260 ft 398 kts 359°
2026-04-27 08:23 59.96828 18.25216 37258 ft 398 kts 359°
2026-04-27 08:24 60.02359 18.25857 37262 ft 398 kts 359°
2026-04-27 08:24 60.07855 18.26499 37261 ft 398 kts 359°
2026-04-27 08:25 60.13388 18.27149 37265 ft 398 kts 359°
2026-04-27 08:25 60.18924 18.27800 37264 ft 398 kts 359°
2026-04-27 08:26 60.24456 18.28455 37265 ft 399 kts 359°
2026-04-27 08:26 60.29999 18.29113 37268 ft 399 kts 359°
2026-04-27 08:27 60.35538 18.29774 37271 ft 399 kts 359°
2026-04-27 08:27 60.41086 18.30435 37277 ft 399 kts 359°
2026-04-27 08:28 60.46629 18.31089 37275 ft 399 kts 359°
2026-04-27 08:28 60.52177 18.31742 37275 ft 400 kts 359°
2026-04-27 08:29 60.57732 18.32390 37277 ft 400 kts 359°
2026-04-27 08:29 60.63299 18.33033 37277 ft 400 kts 359°
2026-04-27 08:30 60.68856 18.33671 37275 ft 401 kts 359°
2026-04-27 08:30 60.74424 18.34305 37272 ft 401 kts 359°
2026-04-27 08:31 60.80001 18.34936 37271 ft 401 kts 359°
2026-04-27 08:31 60.85577 18.35561 37271 ft 402 kts 359°
2026-04-27 08:32 60.91157 18.36181 37266 ft 402 kts 359°
2026-04-27 08:32 60.96748 18.36799 37265 ft 402 kts 359°
2026-04-27 08:33 61.02338 18.37413 37258 ft 403 kts 359°
2026-04-27 08:33 61.07939 18.38024 37258 ft 403 kts 359°
2026-04-27 08:34 61.13542 18.38628 37259 ft 403 kts 359°
2026-04-27 08:34 61.19147 18.39227 37261 ft 404 kts 359°
2026-04-27 08:35 61.24759 18.39821 37260 ft 404 kts 359°
2026-04-27 08:35 61.30381 18.40411 37260 ft 404 kts 359°
2026-04-27 08:36 61.36007 18.40999 37258 ft 405 kts 359°
2026-04-27 08:36 61.41635 18.41582 37253 ft 405 kts 359°
2026-04-27 08:37 61.47271 18.42157 37257 ft 406 kts 359°
2026-04-27 08:37 61.52915 18.42725 37256 ft 406 kts 359°
2026-04-27 08:38 61.58560 18.43283 37255 ft 406 kts 359°
2026-04-27 08:38 61.64215 18.43828 37254 ft 407 kts 359°
2026-04-27 08:39 61.69838 18.44360 37251 ft 407 kts 359°
2026-04-27 08:39 61.75535 18.44890 37252 ft 407 kts 359°
2026-04-27 08:40 61.81164 18.45400 37254 ft 408 kts 359°
2026-04-27 08:40 61.86837 18.45904 37254 ft 408 kts 359°
2026-04-27 08:41 61.92508 18.46401 37250 ft 408 kts 359°
2026-04-27 08:41 61.98179 18.46890 37253 ft 408 kts 359°
2026-04-27 08:42 62.03854 18.47376 37255 ft 408 kts 359°
2026-04-27 08:42 62.09532 18.47860 37251 ft 408 kts 360°
2026-04-27 08:43 62.15208 18.48338 37246 ft 409 kts 360°
2026-04-27 08:43 62.20889 18.48814 37244 ft 409 kts 360°
2026-04-27 08:44 62.26581 18.49286 37245 ft 409 kts 360°
2026-04-27 08:44 62.32277 18.49753 37241 ft 410 kts 360°
2026-04-27 08:45 62.37971 18.50211 37236 ft 410 kts 360°
2026-04-27 08:45 62.43672 18.50659 37235 ft 410 kts 359°
2026-04-27 08:46 62.46499 18.50098 37221 ft 407 kts 344°
2026-04-27 08:46 62.49110 18.47841 37221 ft 406 kts 329°
2026-04-27 08:46 62.51320 18.44023 37211 ft 409 kts 314°
2026-04-27 08:46 62.52930 18.38912 37206 ft 416 kts 298°
2026-04-27 08:47 62.53779 18.32866 37200 ft 426 kts 282°
2026-04-27 08:47 62.53737 18.26386 37194 ft 439 kts 264°
2026-04-27 08:47 62.52743 18.20057 37195 ft 453 kts 246°
2026-04-27 08:47 62.50812 18.14579 37195 ft 467 kts 226°
2026-04-27 08:48 62.48073 18.10697 37195 ft 479 kts 206°
2026-04-27 08:48 62.44812 18.08968 37193 ft 488 kts 187°
2026-04-27 08:48 62.37998 18.08207 37199 ft 493 kts 184°
2026-04-27 08:49 62.32288 18.07920 37202 ft 495 kts 184°
2026-04-27 08:49 62.25392 18.07521 37207 ft 496 kts 185°
2026-04-27 08:50 62.18438 18.06939 37216 ft 497 kts 185°
2026-04-27 08:50 62.11569 18.06318 37222 ft 498 kts 185°
2026-04-27 08:51 62.04648 18.05738 37232 ft 498 kts 185°
2026-04-27 08:51 61.97722 18.05163 37241 ft 498 kts 185°
2026-04-27 08:52 61.90798 18.04616 37249 ft 498 kts 185°
2026-04-27 08:52 61.83874 18.04063 37247 ft 498 kts 185°
2026-04-27 08:53 61.76946 18.03490 37250 ft 498 kts 185°
2026-04-27 08:53 61.70026 18.02927 37252 ft 498 kts 185°
2026-04-27 08:54 61.63100 18.02375 37257 ft 498 kts 185°
2026-04-27 08:54 61.56174 18.01830 37253 ft 498 kts 185°
2026-04-27 08:55 61.49248 18.01267 37257 ft 498 kts 185°
2026-04-27 08:55 61.42335 18.00714 37262 ft 497 kts 185°
2026-04-27 08:56 61.35421 18.00168 37264 ft 497 kts 185°
2026-04-27 08:56 61.28510 17.99628 37265 ft 497 kts 186°
2026-04-27 08:57 61.18147 17.98807 37257 ft 497 kts 186°
2026-04-27 08:58 61.11236 17.98268 37267 ft 497 kts 186°
2026-04-27 08:58 61.04328 17.97744 37263 ft 497 kts 186°
2026-04-27 08:59 60.97423 17.97216 37262 ft 497 kts 186°
2026-04-27 08:59 60.90508 17.96677 37261 ft 497 kts 186°
2026-04-27 08:59 60.87048 17.96407 36613 ft 501 kts 186°
2026-04-27 09:00 60.83523 17.96130 35492 ft 512 kts 186°
2026-04-27 09:00 60.79937 17.95850 34454 ft 520 kts 187°
2026-04-27 09:00 60.76295 17.95577 33297 ft 527 kts 188°
2026-04-27 09:00 60.72629 17.95303 32393 ft 527 kts 187°
2026-04-27 09:01 60.68956 17.95035 31525 ft 527 kts 187°
2026-04-27 09:01 60.65298 17.94766 30800 ft 524 kts 188°
2026-04-27 09:01 60.61664 17.94496 30116 ft 521 kts 188°
2026-04-27 09:01 60.58055 17.94231 29385 ft 517 kts 188°
2026-04-27 09:02 60.54482 17.93969 28700 ft 512 kts 187°
2026-04-27 09:02 60.50931 17.93705 28044 ft 507 kts 187°
2026-04-27 09:02 60.47421 17.93441 27401 ft 503 kts 187°
2026-04-27 09:02 60.43939 17.93180 26782 ft 498 kts 187°
2026-04-27 09:03 60.40492 17.92926 26165 ft 494 kts 187°
2026-04-27 09:03 60.37067 17.92674 25573 ft 490 kts 187°
2026-04-27 09:03 60.33670 17.92425 24997 ft 486 kts 187°
2026-04-27 09:03 60.30304 17.92179 24437 ft 482 kts 187°
2026-04-27 09:04 60.26968 17.91933 23896 ft 478 kts 187°
2026-04-27 09:04 60.23653 17.91691 23284 ft 475 kts 186°
2026-04-27 09:04 60.20365 17.91453 22711 ft 471 kts 186°
2026-04-27 09:04 60.17108 17.91219 22172 ft 466 kts 186°
2026-04-27 09:05 60.13879 17.90989 21656 ft 462 kts 186°
2026-04-27 09:05 60.10680 17.90759 21169 ft 458 kts 186°
2026-04-27 09:05 60.07511 17.90526 20701 ft 454 kts 186°
2026-04-27 09:05 60.04365 17.90279 20266 ft 449 kts 187°
2026-04-27 09:06 60.01347 17.89376 20115 ft 430 kts 197°
2026-04-27 09:06 59.98499 17.88173 19913 ft 419 kts 198°
2026-04-27 09:06 59.95664 17.86960 19526 ft 414 kts 198°
2026-04-27 09:06 59.92856 17.85753 19097 ft 411 kts 198°
2026-04-27 09:07 59.90078 17.84551 18667 ft 407 kts 198°
2026-04-27 09:07 59.87319 17.83350 18199 ft 404 kts 198°
2026-04-27 09:07 59.84586 17.82151 17719 ft 401 kts 198°
2026-04-27 09:07 59.81876 17.80952 17259 ft 397 kts 198°
2026-04-27 09:08 59.79199 17.79754 16803 ft 393 kts 198°
2026-04-27 09:08 59.76551 17.78555 16369 ft 389 kts 198°
2026-04-27 09:08 59.73927 17.77355 15937 ft 385 kts 198°
2026-04-27 09:08 59.71329 17.76156 15500 ft 382 kts 198°
2026-04-27 09:09 59.68752 17.74953 15078 ft 378 kts 198°
2026-04-27 09:09 59.66186 17.73897 14648 ft 377 kts 193°
2026-04-27 09:09 59.63602 17.73154 14257 ft 374 kts 188°
2026-04-27 09:09 59.61058 17.72698 14121 ft 356 kts 188°
2026-04-27 09:10 59.58651 17.72303 13900 ft 337 kts 188°
2026-04-27 09:10 59.56385 17.71943 13765 ft 317 kts 188°
2026-04-27 09:10 59.54248 17.71612 13617 ft 300 kts 188°
2026-04-27 09:10 59.52221 17.71307 13396 ft 286 kts 187°
2026-04-27 09:11 59.50249 17.71012 13165 ft 282 kts 187°
2026-04-27 09:11 59.48302 17.70714 12921 ft 280 kts 187°
2026-04-27 09:11 59.46366 17.70409 12658 ft 278 kts 187°
2026-04-27 09:11 59.44442 17.70098 12407 ft 277 kts 187°
2026-04-27 09:12 59.42536 17.69782 12055 ft 273 kts 187°
2026-04-27 09:12 59.40646 17.69456 11631 ft 271 kts 187°
2026-04-27 09:12 59.38777 17.69118 11246 ft 269 kts 187°
2026-04-27 09:12 59.36924 17.68766 10860 ft 266 kts 187°
2026-04-27 09:13 59.35091 17.68670 10467 ft 263 kts 169°
2026-04-27 09:13 59.33413 17.69885 10081 ft 255 kts 142°
2026-04-27 09:13 59.32184 17.72244 9649 ft 242 kts 116°
2026-04-27 09:13 59.31556 17.75189 9226 ft 230 kts 93°
2026-04-27 09:14 59.31530 17.78213 8781 ft 218 kts 71°
2026-04-27 09:14 59.32027 17.80922 8352 ft 208 kts 53°
2026-04-27 09:14 59.32924 17.83052 7902 ft 200 kts 35°
2026-04-27 09:14 59.34090 17.84454 7454 ft 196 kts 18°
2026-04-27 09:15 59.35402 17.85043 7013 ft 193 kts
2026-04-27 09:15 59.36745 17.85146 6575 ft 194 kts
2026-04-27 09:15 59.38093 17.85266 6201 ft 193 kts
2026-04-27 09:15 59.39435 17.85393 5871 ft 193 kts
2026-04-27 09:16 59.40774 17.85522 5619 ft 192 kts
2026-04-27 09:16 59.42104 17.85648 5343 ft 191 kts
2026-04-27 09:16 59.43429 17.85771 5087 ft 190 kts
2026-04-27 09:16 59.44749 17.85891 4842 ft 190 kts
2026-04-27 09:17 59.46066 17.86012 4616 ft 189 kts
2026-04-27 09:17 59.47374 17.86137 4357 ft 188 kts
2026-04-27 09:17 59.48680 17.86252 4149 ft 183 kts
2026-04-27 09:17 59.49855 17.86459 4040 ft 156 kts
2026-04-27 09:18 59.50860 17.86754 3783 ft 140 kts
2026-04-27 09:18 59.51800 17.87081 3458 ft 136 kts
2026-04-27 09:18 59.52743 17.87429 3098 ft 139 kts
2026-04-27 09:18 59.53692 17.87772 2589 ft 142 kts
2026-04-27 09:19 59.54680 17.88133 2164 ft 147 kts
2026-04-27 09:19 59.55665 17.88485 1942 ft 140 kts
2026-04-27 09:19 59.56614 17.88765 1667 ft 137 kts
2026-04-27 09:19 59.57539 17.89065 1411 ft 132 kts
2026-04-27 09:20 59.58432 17.89401 1192 ft 130 kts
2026-04-27 09:20 59.59314 17.89753 1049 ft 129 kts
2026-04-27 09:20 59.60197 17.90060 869 ft 129 kts
2026-04-27 09:20 59.61082 17.90343 693 ft 129 kts
2026-04-27 09:21 59.61965 17.90686 570 ft 129 kts
2026-04-27 09:21 59.62844 17.91015 375 ft 128 kts
2026-04-27 09:21 59.63723 17.91326 142 ft 128 kts